Data supplied by UK-AIR on 3/5/2024
All Data GMT hour ending 
Status: R =Ratified P=Provisional,P*=As supplied
,,London Westminster,,,,,,,,,,,,,,,,,,,,,,,
Date,time,"Nitric oxide",status,unit,"Nitrogen dioxide",status,unit,"Nitrogen oxides as nitrogen dioxide",status,unit,"Ozone",status,unit,"PM<sub>2.5</sub> particulate matter (Hourly measured)",status,unit
 
01-01-2024,01:00,3.19475,P,ugm-3,6.98764,P,ugm-3,11.88619,P,ugm-3,61.53408,P,ugm-3,5.000,P,ugm-3 (BAM)
01-01-2024,02:00,5.02703,P,ugm-3,11.38192,P,ugm-3,19.08994,P,ugm-3,58.60706,P,ugm-3,4.000,P,ugm-3 (BAM)
01-01-2024,03:00,2.11417,P,ugm-3,4.80850,P,ugm-3,8.05019,P,ugm-3,62.56520,P,ugm-3,5.000,P,ugm-3 (BAM)
01-01-2024,04:00,1.16280,P,ugm-3,3.29572,P,ugm-3,5.07864,P,ugm-3,62.81466,P,ugm-3,4.000,P,ugm-3 (BAM)
01-01-2024,05:00,1.23327,P,ugm-3,3.40377,P,ugm-3,5.29476,P,ugm-3,62.76477,P,ugm-3,1.000,P,ugm-3 (BAM)
01-01-2024,06:00,1.33898,P,ugm-3,3.51183,P,ugm-3,5.56490,P,ugm-3,62.31573,P,ugm-3,0.000,P,ugm-3 (BAM)
01-01-2024,07:00,1.44469,P,ugm-3,4.48433,P,ugm-3,6.69949,P,ugm-3,62.51530,P,ugm-3,4.000,P,ugm-3 (BAM)
01-01-2024,08:00,1.19803,P,ugm-3,5.24073,P,ugm-3,7.07768,P,ugm-3,61.11831,P,ugm-3,8.000,P,ugm-3 (BAM)
01-01-2024,09:00,1.23327,P,ugm-3,4.59239,P,ugm-3,6.48338,P,ugm-3,63.36348,P,ugm-3,7.000,P,ugm-3 (BAM)
01-01-2024,10:00,1.40945,P,ugm-3,5.24073,P,ugm-3,7.40185,P,ugm-3,61.61724,P,ugm-3,6.000,P,ugm-3 (BAM)
01-01-2024,11:00,1.55039,P,ugm-3,5.51087,P,ugm-3,7.88811,P,ugm-3,62.31573,P,ugm-3,8.000,P,ugm-3 (BAM)
01-01-2024,12:00,1.65610,P,ugm-3,5.40281,P,ugm-3,7.94213,P,ugm-3,63.06412,P,ugm-3,4.000,P,ugm-3 (BAM)
01-01-2024,13:00,1.79705,P,ugm-3,6.53740,P,ugm-3,9.29284,P,ugm-3,62.61509,P,ugm-3,2.000,P,ugm-3 (BAM)
01-01-2024,14:00,1.76181,P,ugm-3,9.45492,P,ugm-3,12.15633,P,ugm-3,59.87100,P,ugm-3,0.000,P,ugm-3 (BAM)
01-01-2024,15:00,1.76181,P,ugm-3,12.69661,P,ugm-3,15.39802,P,ugm-3,55.38068,P,ugm-3,2.000,P,ugm-3 (BAM)
01-01-2024,16:00,2.25512,P,ugm-3,18.69373,P,ugm-3,22.15153,P,ugm-3,47.39788,P,ugm-3,4.000,P,ugm-3 (BAM)
01-01-2024,17:00,2.25512,P,ugm-3,25.44725,P,ugm-3,28.90505,P,ugm-3,48.29594,P,ugm-3,3.000,P,ugm-3 (BAM)
01-01-2024,18:00,2.57224,P,ugm-3,20.63874,P,ugm-3,24.58280,P,ugm-3,53.43487,P,ugm-3,1.000,P,ugm-3 (BAM)
01-01-2024,19:00,2.18465,P,ugm-3,14.64162,P,ugm-3,17.99137,P,ugm-3,58.37423,P,ugm-3,1.000,P,ugm-3 (BAM)
01-01-2024,20:00,2.36083,P,ugm-3,11.56202,P,ugm-3,15.18190,P,ugm-3,60.41982,P,ugm-3,-2.000,P,ugm-3 (BAM)
01-01-2024,21:00,2.21988,P,ugm-3,11.83216,P,ugm-3,15.23593,P,ugm-3,61.21810,P,ugm-3,-2.000,P,ugm-3 (BAM)
01-01-2024,22:00,1.79705,P,ugm-3,8.91464,P,ugm-3,11.67008,P,ugm-3,62.56520,P,ugm-3,-3.000,P,ugm-3 (BAM)
01-01-2024,23:00,1.51516,P,ugm-3,5.99712,P,ugm-3,8.32033,P,ugm-3,71.04692,P,ugm-3,2.000,P,ugm-3 (BAM)
01-01-2024,24:00,1.23327,P,ugm-3,4.26822,P,ugm-3,6.15921,P,ugm-3,76.78456,P,ugm-3,2.000,P,ugm-3 (BAM)
02-01-2024,01:00,1.22152,P,ugm-3,4.17818,P,ugm-3,6.05115,P,ugm-3,,,,-3.000,P,ugm-3 (BAM)
02-01-2024,02:00,1.17454,P,ugm-3,2.08909,P,ugm-3,3.89003,P,ugm-3,75.37094,P,ugm-3,-4.000,P,ugm-3 (BAM)
02-01-2024,03:00,0.91614,P,ugm-3,1.35070,P,ugm-3,2.75543,P,ugm-3,75.58714,P,ugm-3,-3.000,P,ugm-3 (BAM)
02-01-2024,04:00,1.05709,P,ugm-3,1.56682,P,ugm-3,3.18766,P,ugm-3,74.98843,P,ugm-3,-1.000,P,ugm-3 (BAM)
02-01-2024,05:00,1.23327,P,ugm-3,1.99904,P,ugm-3,3.89003,P,ugm-3,73.74112,P,ugm-3,-2.000,P,ugm-3 (BAM)
02-01-2024,06:00,1.12756,P,ugm-3,3.18766,P,ugm-3,4.91656,P,ugm-3,72.14456,P,ugm-3,0.000,P,ugm-3 (BAM)
02-01-2024,07:00,1.62087,P,ugm-3,9.02270,P,ugm-3,11.50799,P,ugm-3,65.15961,P,ugm-3,3.000,P,ugm-3 (BAM)
02-01-2024,08:00,1.65610,P,ugm-3,18.36956,P,ugm-3,20.90888,P,ugm-3,53.38498,P,ugm-3,7.000,P,ugm-3 (BAM)
02-01-2024,09:00,3.06555,P,ugm-3,31.98465,P,ugm-3,36.68510,P,ugm-3,43.15701,P,ugm-3,3.000,P,ugm-3 (BAM)
02-01-2024,10:00,2.81890,P,ugm-3,34.79411,P,ugm-3,39.11636,P,ugm-3,44.25465,P,ugm-3,1.000,P,ugm-3 (BAM)
02-01-2024,11:00,3.13602,P,ugm-3,29.22922,P,ugm-3,34.03772,P,ugm-3,55.38068,P,ugm-3,1.000,P,ugm-3 (BAM)
02-01-2024,12:00,2.18465,P,ugm-3,12.04827,P,ugm-3,15.39802,P,ugm-3,70.14886,P,ugm-3,1.000,P,ugm-3 (BAM)
02-01-2024,13:00,1.86752,P,ugm-3,8.59047,P,ugm-3,11.45396,P,ugm-3,71.64563,P,ugm-3,-2.000,P,ugm-3 (BAM)
02-01-2024,14:00,1.44469,P,ugm-3,5.83504,P,ugm-3,8.05019,P,ugm-3,73.44176,P,ugm-3,-3.000,P,ugm-3 (BAM)
02-01-2024,15:00,1.58563,P,ugm-3,5.61893,P,ugm-3,8.05019,P,ugm-3,75.83660,P,ugm-3,1.000,P,ugm-3 (BAM)
02-01-2024,16:00,1.62087,P,ugm-3,3.67391,P,ugm-3,6.15921,P,ugm-3,82.27273,P,ugm-3,0.000,P,ugm-3 (BAM)
02-01-2024,17:00,1.69134,P,ugm-3,3.67391,P,ugm-3,6.26726,P,ugm-3,82.22284,P,ugm-3,2.000,P,ugm-3 (BAM)
02-01-2024,18:00,1.93799,P,ugm-3,6.05115,P,ugm-3,9.02270,P,ugm-3,78.23144,P,ugm-3,2.000,P,ugm-3 (BAM)
02-01-2024,19:00,1.47992,P,ugm-3,5.99712,P,ugm-3,8.26630,P,ugm-3,76.38542,P,ugm-3,2.000,P,ugm-3 (BAM)
02-01-2024,20:00,1.40945,P,ugm-3,6.26726,P,ugm-3,8.42839,P,ugm-3,74.63918,P,ugm-3,4.000,P,ugm-3 (BAM)
02-01-2024,21:00,1.65610,P,ugm-3,5.56490,P,ugm-3,8.10422,P,ugm-3,72.44391,P,ugm-3,6.000,P,ugm-3 (BAM)
02-01-2024,22:00,1.69134,P,ugm-3,5.45684,P,ugm-3,8.05019,P,ugm-3,70.29853,P,ugm-3,4.000,P,ugm-3 (BAM)
02-01-2024,23:00,1.33898,P,ugm-3,3.51183,P,ugm-3,5.56490,P,ugm-3,70.24864,P,ugm-3,4.000,P,ugm-3 (BAM)
02-01-2024,24:00,1.37421,P,ugm-3,2.43127,P,ugm-3,4.53836,P,ugm-3,70.04907,P,ugm-3,2.000,P,ugm-3 (BAM)
03-01-2024,01:00,1.26850,P,ugm-3,1.80094,P,ugm-3,3.74595,P,ugm-3,70.31516,P,ugm-3,1.000,P,ugm-3 (BAM)
03-01-2024,02:00,1.36247,P,ugm-3,2.37724,P,ugm-3,4.46632,P,ugm-3,70.04907,P,ugm-3,1.000,P,ugm-3 (BAM)
03-01-2024,03:00,0.98661,P,ugm-3,1.78293,P,ugm-3,3.29572,P,ugm-3,73.04262,P,ugm-3,3.000,P,ugm-3 (BAM)
03-01-2024,04:00,1.12756,P,ugm-3,1.51279,P,ugm-3,3.24169,P,ugm-3,74.63918,P,ugm-3,4.000,P,ugm-3 (BAM)
03-01-2024,05:00,1.12756,P,ugm-3,1.08056,P,ugm-3,2.80946,P,ugm-3,74.33983,P,ugm-3,3.000,P,ugm-3 (BAM)
03-01-2024,06:00,1.16280,P,ugm-3,1.99904,P,ugm-3,3.78197,P,ugm-3,72.74327,P,ugm-3,0.000,P,ugm-3 (BAM)
03-01-2024,07:00,1.44469,P,ugm-3,4.80850,P,ugm-3,7.02366,P,ugm-3,68.80176,P,ugm-3,0.000,P,ugm-3 (BAM)
03-01-2024,08:00,1.58563,P,ugm-3,10.04923,P,ugm-3,12.48050,P,ugm-3,63.86240,P,ugm-3,5.000,P,ugm-3 (BAM)
03-01-2024,09:00,1.97323,P,ugm-3,15.18190,P,ugm-3,18.20748,P,ugm-3,57.47616,P,ugm-3,5.000,P,ugm-3 (BAM)
03-01-2024,10:00,1.93799,P,ugm-3,14.91176,P,ugm-3,17.88331,P,ugm-3,60.41982,P,ugm-3,5.000,P,ugm-3 (BAM)
03-01-2024,11:00,2.29036,P,ugm-3,10.53548,P,ugm-3,14.04731,P,ugm-3,65.35918,P,ugm-3,5.000,P,ugm-3 (BAM)
03-01-2024,12:00,2.14941,P,ugm-3,8.32033,P,ugm-3,11.61605,P,ugm-3,67.05552,P,ugm-3,4.000,P,ugm-3 (BAM)
03-01-2024,13:00,4.26358,P,ugm-3,19.34207,P,ugm-3,25.87947,P,ugm-3,50.94024,P,ugm-3,7.000,P,ugm-3 (BAM)
03-01-2024,14:00,4.72165,P,ugm-3,17.12692,P,ugm-3,24.36668,P,ugm-3,60.86885,P,ugm-3,4.000,P,ugm-3 (BAM)
03-01-2024,15:00,3.45315,P,ugm-3,14.20940,P,ugm-3,19.50415,P,ugm-3,62.31573,P,ugm-3,3.000,P,ugm-3 (BAM)
03-01-2024,16:00,2.88937,P,ugm-3,19.12596,P,ugm-3,23.55626,P,ugm-3,54.73207,P,ugm-3,2.000,P,ugm-3 (BAM)
03-01-2024,17:00,2.36083,P,ugm-3,27.98657,P,ugm-3,31.60645,P,ugm-3,48.99444,P,ugm-3,0.000,P,ugm-3 (BAM)
03-01-2024,18:00,1.93799,P,ugm-3,21.82736,P,ugm-3,24.79891,P,ugm-3,51.28949,P,ugm-3,2.000,P,ugm-3 (BAM)
03-01-2024,19:00,2.60748,P,ugm-3,30.74200,P,ugm-3,34.74008,P,ugm-3,46.79917,P,ugm-3,3.000,P,ugm-3 (BAM)
03-01-2024,20:00,2.57224,P,ugm-3,25.39322,P,ugm-3,29.33727,P,ugm-3,46.69938,P,ugm-3,5.000,P,ugm-3 (BAM)
03-01-2024,21:00,2.46654,P,ugm-3,29.82353,P,ugm-3,33.60549,P,ugm-3,40.41293,P,ugm-3,5.000,P,ugm-3 (BAM)
03-01-2024,22:00,1.90276,P,ugm-3,30.74200,P,ugm-3,33.65952,P,ugm-3,36.82067,P,ugm-3,10.000,P,ugm-3 (BAM)
03-01-2024,23:00,1.58563,P,ugm-3,22.31362,P,ugm-3,24.74488,P,ugm-3,47.29809,P,ugm-3,4.000,P,ugm-3 (BAM)
03-01-2024,24:00,1.30374,P,ugm-3,11.02174,P,ugm-3,13.02078,P,ugm-3,51.63874,P,ugm-3,2.000,P,ugm-3 (BAM)
04-01-2024,01:00,1.12756,P,ugm-3,7.41986,P,ugm-3,9.14876,P,ugm-3,53.95042,P,ugm-3,0.000,P,ugm-3 (BAM)
04-01-2024,02:00,1.22152,P,ugm-3,4.75448,P,ugm-3,6.62745,P,ugm-3,58.74010,P,ugm-3,-2.000,P,ugm-3 (BAM)
04-01-2024,03:00,1.16280,P,ugm-3,2.91752,P,ugm-3,4.70045,P,ugm-3,62.31573,P,ugm-3,-1.000,P,ugm-3 (BAM)
04-01-2024,04:00,1.16280,P,ugm-3,2.37724,P,ugm-3,4.16017,P,ugm-3,64.76047,P,ugm-3,0.000,P,ugm-3 (BAM)
04-01-2024,05:00,0.98661,P,ugm-3,2.75543,P,ugm-3,4.26822,P,ugm-3,63.86240,P,ugm-3,-2.000,P,ugm-3 (BAM)
04-01-2024,06:00,1.37421,P,ugm-3,3.29572,P,ugm-3,5.40281,P,ugm-3,62.06627,P,ugm-3,0.000,P,ugm-3 (BAM)
04-01-2024,07:00,1.65610,P,ugm-3,8.75256,P,ugm-3,11.29188,P,ugm-3,55.68003,P,ugm-3,3.000,P,ugm-3 (BAM)
04-01-2024,08:00,1.76181,P,ugm-3,15.93830,P,ugm-3,18.63970,P,ugm-3,50.04218,P,ugm-3,7.000,P,ugm-3 (BAM)
04-01-2024,09:00,1.90276,P,ugm-3,19.82832,P,ugm-3,22.74584,P,ugm-3,46.35013,P,ugm-3,5.000,P,ugm-3 (BAM)
04-01-2024,10:00,3.03032,P,ugm-3,23.39418,P,ugm-3,28.04060,P,ugm-3,46.74927,P,ugm-3,3.000,P,ugm-3 (BAM)
04-01-2024,11:00,3.48839,P,ugm-3,20.47666,P,ugm-3,25.82544,P,ugm-3,50.19186,P,ugm-3,4.000,P,ugm-3 (BAM)
04-01-2024,12:00,3.84075,P,ugm-3,20.85486,P,ugm-3,26.74392,P,ugm-3,49.79272,P,ugm-3,5.000,P,ugm-3 (BAM)
04-01-2024,13:00,3.55886,P,ugm-3,25.23113,P,ugm-3,30.68798,P,ugm-3,48.89465,P,ugm-3,7.000,P,ugm-3 (BAM)
04-01-2024,14:00,3.84075,P,ugm-3,33.22730,P,ugm-3,39.11636,P,ugm-3,38.76647,P,ugm-3,4.000,P,ugm-3 (BAM)
04-01-2024,15:00,4.93307,P,ugm-3,39.44053,P,ugm-3,47.00447,P,ugm-3,32.33034,P,ugm-3,4.000,P,ugm-3 (BAM)
04-01-2024,16:00,5.28543,P,ugm-3,41.54763,P,ugm-3,49.65185,P,ugm-3,29.73593,P,ugm-3,8.000,P,ugm-3 (BAM)
04-01-2024,17:00,3.80551,P,ugm-3,37.27941,P,ugm-3,43.11444,P,ugm-3,39.56475,P,ugm-3,5.000,P,ugm-3 (BAM)
04-01-2024,18:00,3.62933,P,ugm-3,37.76566,P,ugm-3,43.33056,P,ugm-3,44.60390,P,ugm-3,2.000,P,ugm-3 (BAM)
04-01-2024,19:00,4.05217,P,ugm-3,36.63107,P,ugm-3,42.84430,P,ugm-3,43.15701,P,ugm-3,2.000,P,ugm-3 (BAM)
04-01-2024,20:00,5.88445,P,ugm-3,36.30690,P,ugm-3,45.32960,P,ugm-3,34.87486,P,ugm-3,1.000,P,ugm-3 (BAM)
04-01-2024,21:00,4.43976,P,ugm-3,43.16847,P,ugm-3,49.97602,P,ugm-3,24.74668,P,ugm-3,0.000,P,ugm-3 (BAM)
04-01-2024,22:00,2.85413,P,ugm-3,41.06138,P,ugm-3,45.43765,P,ugm-3,41.85981,P,ugm-3,3.000,P,ugm-3 (BAM)
04-01-2024,23:00,2.29036,P,ugm-3,32.47090,P,ugm-3,35.98273,P,ugm-3,36.37163,P,ugm-3,0.000,P,ugm-3 (BAM)
04-01-2024,24:00,1.86752,P,ugm-3,17.28900,P,ugm-3,20.15249,P,ugm-3,56.92734,P,ugm-3,-2.000,P,ugm-3 (BAM)
05-01-2024,01:00,1.64436,P,ugm-3,8.86061,P,ugm-3,11.38192,P,ugm-3,64.26154,P,ugm-3,-2.000,P,ugm-3 (BAM)
05-01-2024,02:00,1.40945,P,ugm-3,5.76300,P,ugm-3,7.92412,P,ugm-3,71.84520,P,ugm-3,0.000,P,ugm-3 (BAM)
05-01-2024,03:00,1.16280,P,ugm-3,5.51087,P,ugm-3,7.29380,P,ugm-3,77.33338,P,ugm-3,4.000,P,ugm-3 (BAM)
05-01-2024,04:00,1.19803,P,ugm-3,3.40377,P,ugm-3,5.24073,P,ugm-3,67.50455,P,ugm-3,1.000,P,ugm-3 (BAM)
05-01-2024,05:00,1.26850,P,ugm-3,9.18478,P,ugm-3,11.12979,P,ugm-3,48.14626,P,ugm-3,0.000,P,ugm-3 (BAM)
05-01-2024,06:00,1.90276,P,ugm-3,17.66720,P,ugm-3,20.58472,P,ugm-3,34.37593,P,ugm-3,6.000,P,ugm-3 (BAM)
05-01-2024,07:00,4.58071,P,ugm-3,23.61029,P,ugm-3,30.63395,P,ugm-3,27.59055,P,ugm-3,5.000,P,ugm-3 (BAM)
05-01-2024,08:00,10.28898,P,ugm-3,35.28037,P,ugm-3,51.05658,P,ugm-3,22.55141,P,ugm-3,7.000,P,ugm-3 (BAM)
05-01-2024,09:00,6.37776,P,ugm-3,35.11828,P,ugm-3,44.89737,P,ugm-3,20.70539,P,ugm-3,11.000,P,ugm-3 (BAM)
05-01-2024,10:00,8.06910,P,ugm-3,36.63107,P,ugm-3,49.00351,P,ugm-3,21.40388,P,ugm-3,9.000,P,ugm-3 (BAM)
05-01-2024,11:00,14.51733,P,ugm-3,41.16943,P,ugm-3,63.42902,P,ugm-3,19.75743,P,ugm-3,6.000,P,ugm-3 (BAM)
05-01-2024,12:00,17.93524,P,ugm-3,38.84622,P,ugm-3,66.34654,P,ugm-3,21.30410,P,ugm-3,6.000,P,ugm-3 (BAM)
05-01-2024,13:00,18.71044,P,ugm-3,40.14290,P,ugm-3,68.83183,P,ugm-3,19.95700,P,ugm-3,3.000,P,ugm-3 (BAM)
05-01-2024,14:00,18.39331,P,ugm-3,41.65568,P,ugm-3,69.85837,P,ugm-3,17.06324,P,ugm-3,7.000,P,ugm-3 (BAM)
05-01-2024,15:00,22.12835,P,ugm-3,44.68126,P,ugm-3,78.61092,P,ugm-3,17.01334,P,ugm-3,8.000,P,ugm-3 (BAM)
05-01-2024,16:00,20.57796,P,ugm-3,45.05946,P,ugm-3,76.61188,P,ugm-3,16.16517,P,ugm-3,8.000,P,ugm-3 (BAM)
05-01-2024,17:00,21.38839,P,ugm-3,47.54475,P,ugm-3,80.33982,P,ugm-3,10.47743,P,ugm-3,6.000,P,ugm-3 (BAM)
05-01-2024,18:00,28.25945,P,ugm-3,51.81297,P,ugm-3,95.14353,P,ugm-3,9.13033,P,ugm-3,7.000,P,ugm-3 (BAM)
05-01-2024,19:00,29.21083,P,ugm-3,52.94756,P,ugm-3,97.73688,P,ugm-3,5.28861,P,ugm-3,7.000,P,ugm-3 (BAM)
05-01-2024,20:00,12.08603,P,ugm-3,43.27653,P,ugm-3,61.80818,P,ugm-3,22.90066,P,ugm-3,7.000,P,ugm-3 (BAM)
05-01-2024,21:00,3.41791,P,ugm-3,27.01406,P,ugm-3,32.25479,P,ugm-3,30.88346,P,ugm-3,9.000,P,ugm-3 (BAM)
05-01-2024,22:00,2.21988,P,ugm-3,20.96291,P,ugm-3,24.36668,P,ugm-3,34.57550,P,ugm-3,4.000,P,ugm-3 (BAM)
05-01-2024,23:00,2.99508,P,ugm-3,22.47570,P,ugm-3,27.06809,P,ugm-3,29.13722,P,ugm-3,3.000,P,ugm-3 (BAM)
05-01-2024,24:00,2.81890,P,ugm-3,23.98849,P,ugm-3,28.31074,P,ugm-3,26.84217,P,ugm-3,4.000,P,ugm-3 (BAM)
06-01-2024,01:00,2.49003,P,ugm-3,21.61125,P,ugm-3,25.42924,P,ugm-3,29.93550,P,ugm-3,4.000,P,ugm-3 (BAM)
06-01-2024,02:00,1.59738,P,ugm-3,24.70886,P,ugm-3,27.15814,P,ugm-3,22.01922,P,ugm-3,6.000,P,ugm-3 (BAM)
06-01-2024,03:00,1.90276,P,ugm-3,27.06809,P,ugm-3,29.98561,P,ugm-3,22.15227,P,ugm-3,4.000,P,ugm-3 (BAM)
06-01-2024,04:00,1.86752,P,ugm-3,21.71931,P,ugm-3,24.58280,P,ugm-3,29.68604,P,ugm-3,5.000,P,ugm-3 (BAM)
06-01-2024,05:00,1.51516,P,ugm-3,14.10134,P,ugm-3,16.42455,P,ugm-3,40.71228,P,ugm-3,2.000,P,ugm-3 (BAM)
06-01-2024,06:00,1.58563,P,ugm-3,11.12979,P,ugm-3,13.56106,P,ugm-3,43.05723,P,ugm-3,2.000,P,ugm-3 (BAM)
06-01-2024,07:00,2.60748,P,ugm-3,16.37052,P,ugm-3,20.36860,P,ugm-3,36.92045,P,ugm-3,4.000,P,ugm-3 (BAM)
06-01-2024,08:00,2.71319,P,ugm-3,19.28804,P,ugm-3,23.44821,P,ugm-3,35.07443,P,ugm-3,2.000,P,ugm-3 (BAM)
06-01-2024,09:00,2.60748,P,ugm-3,19.72027,P,ugm-3,23.71835,P,ugm-3,34.62540,P,ugm-3,1.000,P,ugm-3 (BAM)
06-01-2024,10:00,3.55886,P,ugm-3,20.31458,P,ugm-3,25.77142,P,ugm-3,34.87486,P,ugm-3,4.000,P,ugm-3 (BAM)
06-01-2024,11:00,4.05217,P,ugm-3,17.99137,P,ugm-3,24.20460,P,ugm-3,37.71873,P,ugm-3,3.000,P,ugm-3 (BAM)
06-01-2024,12:00,6.13110,P,ugm-3,19.39610,P,ugm-3,28.79699,P,ugm-3,41.56045,P,ugm-3,2.000,P,ugm-3 (BAM)
06-01-2024,13:00,4.79213,P,ugm-3,15.28996,P,ugm-3,22.63778,P,ugm-3,44.40433,P,ugm-3,0.000,P,ugm-3 (BAM)
06-01-2024,14:00,5.46162,P,ugm-3,20.53069,P,ugm-3,28.90505,P,ugm-3,39.26540,P,ugm-3,1.000,P,ugm-3 (BAM)
06-01-2024,15:00,4.54547,P,ugm-3,18.63970,P,ugm-3,25.60933,P,ugm-3,39.21551,P,ugm-3,3.000,P,ugm-3 (BAM)
06-01-2024,16:00,5.49685,P,ugm-3,22.96195,P,ugm-3,31.39034,P,ugm-3,39.71443,P,ugm-3,1.000,P,ugm-3 (BAM)
06-01-2024,17:00,3.20650,P,ugm-3,19.72027,P,ugm-3,24.63683,P,ugm-3,39.46497,P,ugm-3,0.000,P,ugm-3 (BAM)
06-01-2024,18:00,4.19311,P,ugm-3,25.66336,P,ugm-3,32.09271,P,ugm-3,34.67529,P,ugm-3,3.000,P,ugm-3 (BAM)
06-01-2024,19:00,3.59410,P,ugm-3,24.90697,P,ugm-3,30.41783,P,ugm-3,32.08088,P,ugm-3,4.000,P,ugm-3 (BAM)
06-01-2024,20:00,3.69980,P,ugm-3,26.20364,P,ugm-3,31.87659,P,ugm-3,30.38453,P,ugm-3,4.000,P,ugm-3 (BAM)
06-01-2024,21:00,3.20650,P,ugm-3,26.96003,P,ugm-3,31.87659,P,ugm-3,31.63185,P,ugm-3,6.000,P,ugm-3 (BAM)
06-01-2024,22:00,2.99508,P,ugm-3,19.34207,P,ugm-3,23.93446,P,ugm-3,38.21766,P,ugm-3,5.000,P,ugm-3 (BAM)
06-01-2024,23:00,2.53701,P,ugm-3,22.69181,P,ugm-3,26.58184,P,ugm-3,42.45852,P,ugm-3,3.000,P,ugm-3 (BAM)
06-01-2024,24:00,2.14941,P,ugm-3,13.72314,P,ugm-3,17.01886,P,ugm-3,53.63444,P,ugm-3,2.000,P,ugm-3 (BAM)
07-01-2024,01:00,1.92625,P,ugm-3,13.83120,P,ugm-3,16.78474,P,ugm-3,56.61136,P,ugm-3,3.000,P,ugm-3 (BAM)
07-01-2024,02:00,1.55039,P,ugm-3,13.11082,P,ugm-3,15.48806,P,ugm-3,56.27874,P,ugm-3,4.000,P,ugm-3 (BAM)
07-01-2024,03:00,1.69134,P,ugm-3,12.75064,P,ugm-3,15.34399,P,ugm-3,59.12261,P,ugm-3,3.000,P,ugm-3 (BAM)
07-01-2024,04:00,1.76181,P,ugm-3,11.83216,P,ugm-3,14.53357,P,ugm-3,62.66498,P,ugm-3,0.000,P,ugm-3 (BAM)
07-01-2024,05:00,1.37421,P,ugm-3,10.04923,P,ugm-3,12.15633,P,ugm-3,62.11616,P,ugm-3,1.000,P,ugm-3 (BAM)
07-01-2024,06:00,1.30374,P,ugm-3,9.18478,P,ugm-3,11.18382,P,ugm-3,62.06627,P,ugm-3,1.000,P,ugm-3 (BAM)
07-01-2024,07:00,1.65610,P,ugm-3,11.45396,P,ugm-3,13.99328,P,ugm-3,58.82326,P,ugm-3,1.000,P,ugm-3 (BAM)
07-01-2024,08:00,1.83228,P,ugm-3,16.47858,P,ugm-3,19.28804,P,ugm-3,52.83616,P,ugm-3,3.000,P,ugm-3 (BAM)
07-01-2024,09:00,2.64272,P,ugm-3,17.77525,P,ugm-3,21.82736,P,ugm-3,50.74067,P,ugm-3,1.000,P,ugm-3 (BAM)
07-01-2024,10:00,3.62933,P,ugm-3,19.17998,P,ugm-3,24.74488,P,ugm-3,51.53895,P,ugm-3,4.000,P,ugm-3 (BAM)
07-01-2024,11:00,3.80551,P,ugm-3,14.31745,P,ugm-3,20.15249,P,ugm-3,58.12476,P,ugm-3,5.000,P,ugm-3 (BAM)
07-01-2024,12:00,4.05217,P,ugm-3,12.64258,P,ugm-3,18.85582,P,ugm-3,62.66498,P,ugm-3,3.000,P,ugm-3 (BAM)
07-01-2024,13:00,3.52362,P,ugm-3,13.45300,P,ugm-3,18.85582,P,ugm-3,65.10971,P,ugm-3,2.000,P,ugm-3 (BAM)
07-01-2024,14:00,3.87599,P,ugm-3,15.50607,P,ugm-3,21.44917,P,ugm-3,64.71057,P,ugm-3,2.000,P,ugm-3 (BAM)
07-01-2024,15:00,3.24173,P,ugm-3,13.34495,P,ugm-3,18.31553,P,ugm-3,66.55660,P,ugm-3,6.000,P,ugm-3 (BAM)
07-01-2024,16:00,3.20650,P,ugm-3,16.85678,P,ugm-3,21.77333,P,ugm-3,66.60649,P,ugm-3,14.000,P,ugm-3 (BAM)
07-01-2024,17:00,2.64272,P,ugm-3,16.69469,P,ugm-3,20.74680,P,ugm-3,65.25939,P,ugm-3,4.000,P,ugm-3 (BAM)
07-01-2024,18:00,2.88937,P,ugm-3,19.82832,P,ugm-3,24.25863,P,ugm-3,59.97079,P,ugm-3,3.000,P,ugm-3 (BAM)
07-01-2024,19:00,3.34744,P,ugm-3,23.01598,P,ugm-3,28.14865,P,ugm-3,55.77982,P,ugm-3,3.000,P,ugm-3 (BAM)
07-01-2024,20:00,3.24173,P,ugm-3,23.71835,P,ugm-3,28.68893,P,ugm-3,55.38068,P,ugm-3,2.000,P,ugm-3 (BAM)
07-01-2024,21:00,2.25512,P,ugm-3,23.01598,P,ugm-3,26.47378,P,ugm-3,51.73852,P,ugm-3,5.000,P,ugm-3 (BAM)
07-01-2024,22:00,2.46654,P,ugm-3,23.93446,P,ugm-3,27.71643,P,ugm-3,50.74067,P,ugm-3,5.000,P,ugm-3 (BAM)
07-01-2024,23:00,2.29036,P,ugm-3,17.99137,P,ugm-3,21.50319,P,ugm-3,54.68218,P,ugm-3,4.000,P,ugm-3 (BAM)
07-01-2024,24:00,2.04370,P,ugm-3,14.91176,P,ugm-3,18.04539,P,ugm-3,59.67143,P,ugm-3,3.000,P,ugm-3 (BAM)
08-01-2024,01:00,,,,,,,,,,61.99975,P,ugm-3,4.000,P,ugm-3 (BAM)
08-01-2024,02:00,1.73832,P,ugm-3,10.01321,P,ugm-3,12.67860,P,ugm-3,64.79373,P,ugm-3,4.000,P,ugm-3 (BAM)
08-01-2024,03:00,1.65610,P,ugm-3,10.58951,P,ugm-3,13.12883,P,ugm-3,60.76907,P,ugm-3,2.000,P,ugm-3 (BAM)
08-01-2024,04:00,1.62087,P,ugm-3,13.18286,P,ugm-3,15.66816,P,ugm-3,56.77767,P,ugm-3,5.000,P,ugm-3 (BAM)
08-01-2024,05:00,1.69134,P,ugm-3,10.21132,P,ugm-3,12.80467,P,ugm-3,61.61724,P,ugm-3,2.000,P,ugm-3 (BAM)
08-01-2024,06:00,1.58563,P,ugm-3,9.88715,P,ugm-3,12.31841,P,ugm-3,60.86885,P,ugm-3,3.000,P,ugm-3 (BAM)
08-01-2024,07:00,2.50177,P,ugm-3,14.37148,P,ugm-3,18.20748,P,ugm-3,58.37423,P,ugm-3,4.000,P,ugm-3 (BAM)
08-01-2024,08:00,3.24173,P,ugm-3,23.12404,P,ugm-3,28.09463,P,ugm-3,51.48906,P,ugm-3,4.000,P,ugm-3 (BAM)
08-01-2024,09:00,3.62933,P,ugm-3,27.55434,P,ugm-3,33.11924,P,ugm-3,48.49551,P,ugm-3,2.000,P,ugm-3 (BAM)
08-01-2024,10:00,4.61595,P,ugm-3,27.77046,P,ugm-3,34.84814,P,ugm-3,49.24390,P,ugm-3,5.000,P,ugm-3 (BAM)
08-01-2024,11:00,7.29390,P,ugm-3,23.17807,P,ugm-3,34.36189,P,ugm-3,49.09422,P,ugm-3,2.000,P,ugm-3 (BAM)
08-01-2024,12:00,9.83091,P,ugm-3,26.58184,P,ugm-3,41.65568,P,ugm-3,43.45637,P,ugm-3,5.000,P,ugm-3 (BAM)
08-01-2024,13:00,6.80059,P,ugm-3,24.31266,P,ugm-3,34.74008,P,ugm-3,47.34798,P,ugm-3,5.000,P,ugm-3 (BAM)
08-01-2024,14:00,5.14449,P,ugm-3,20.26055,P,ugm-3,28.14865,P,ugm-3,45.90110,P,ugm-3,3.000,P,ugm-3 (BAM)
08-01-2024,15:00,5.67303,P,ugm-3,22.69181,P,ugm-3,31.39034,P,ugm-3,48.39573,P,ugm-3,2.000,P,ugm-3 (BAM)
08-01-2024,16:00,5.46162,P,ugm-3,22.15153,P,ugm-3,30.52589,P,ugm-3,47.69723,P,ugm-3,5.000,P,ugm-3 (BAM)
08-01-2024,17:00,4.43976,P,ugm-3,24.96099,P,ugm-3,31.76854,P,ugm-3,44.70368,P,ugm-3,5.000,P,ugm-3 (BAM)
08-01-2024,18:00,3.98169,P,ugm-3,26.25767,P,ugm-3,32.36285,P,ugm-3,45.80132,P,ugm-3,5.000,P,ugm-3 (BAM)
08-01-2024,19:00,4.08740,P,ugm-3,26.90601,P,ugm-3,33.17327,P,ugm-3,44.85336,P,ugm-3,4.000,P,ugm-3 (BAM)
08-01-2024,20:00,3.45315,P,ugm-3,21.17903,P,ugm-3,26.47378,P,ugm-3,47.69723,P,ugm-3,5.000,P,ugm-3 (BAM)
08-01-2024,21:00,2.99508,P,ugm-3,21.55722,P,ugm-3,26.14961,P,ugm-3,44.45422,P,ugm-3,5.000,P,ugm-3 (BAM)
08-01-2024,22:00,3.03032,P,ugm-3,22.96195,P,ugm-3,27.60837,P,ugm-3,46.59960,P,ugm-3,6.000,P,ugm-3 (BAM)
08-01-2024,23:00,1.97323,P,ugm-3,12.48050,P,ugm-3,15.50607,P,ugm-3,49.99229,P,ugm-3,5.000,P,ugm-3 (BAM)
08-01-2024,24:00,2.43130,P,ugm-3,15.66816,P,ugm-3,19.39610,P,ugm-3,48.49551,P,ugm-3,5.000,P,ugm-3 (BAM)
09-01-2024,01:00,2.30210,P,ugm-3,14.04731,P,ugm-3,17.57715,P,ugm-3,49.09422,P,ugm-3,5.000,P,ugm-3 (BAM)
09-01-2024,02:00,1.92625,P,ugm-3,12.31841,P,ugm-3,15.27195,P,ugm-3,51.08992,P,ugm-3,7.000,P,ugm-3 (BAM)
09-01-2024,03:00,1.90276,P,ugm-3,12.42647,P,ugm-3,15.34399,P,ugm-3,50.34153,P,ugm-3,6.000,P,ugm-3 (BAM)
09-01-2024,04:00,2.04370,P,ugm-3,12.42647,P,ugm-3,15.56010,P,ugm-3,50.89035,P,ugm-3,9.000,P,ugm-3 (BAM)
09-01-2024,05:00,1.83228,P,ugm-3,11.61605,P,ugm-3,14.42551,P,ugm-3,51.33938,P,ugm-3,5.000,P,ugm-3 (BAM)
09-01-2024,06:00,2.11417,P,ugm-3,12.48050,P,ugm-3,15.72218,P,ugm-3,48.54540,P,ugm-3,4.000,P,ugm-3 (BAM)
09-01-2024,07:00,2.64272,P,ugm-3,16.26247,P,ugm-3,20.31458,P,ugm-3,45.25250,P,ugm-3,5.000,P,ugm-3 (BAM)
09-01-2024,08:00,3.87599,P,ugm-3,22.42167,P,ugm-3,28.36477,P,ugm-3,39.36518,P,ugm-3,6.000,P,ugm-3 (BAM)
09-01-2024,09:00,4.93307,P,ugm-3,27.50032,P,ugm-3,35.06425,P,ugm-3,37.41938,P,ugm-3,7.000,P,ugm-3 (BAM)
09-01-2024,10:00,6.23681,P,ugm-3,31.33631,P,ugm-3,40.89929,P,ugm-3,38.16776,P,ugm-3,7.000,P,ugm-3 (BAM)
09-01-2024,11:00,9.47855,P,ugm-3,31.39034,P,ugm-3,45.92391,P,ugm-3,37.66884,P,ugm-3,10.000,P,ugm-3 (BAM)
09-01-2024,12:00,11.45177,P,ugm-3,26.68989,P,ugm-3,44.24903,P,ugm-3,46.69938,P,ugm-3,6.000,P,ugm-3 (BAM)
09-01-2024,13:00,6.80059,P,ugm-3,22.58376,P,ugm-3,33.01118,P,ugm-3,49.59315,P,ugm-3,3.000,P,ugm-3 (BAM)
09-01-2024,14:00,7.18819,P,ugm-3,21.71931,P,ugm-3,32.74104,P,ugm-3,49.39358,P,ugm-3,4.000,P,ugm-3 (BAM)
09-01-2024,15:00,5.88445,P,ugm-3,23.34015,P,ugm-3,32.36285,P,ugm-3,50.44132,P,ugm-3,5.000,P,ugm-3 (BAM)
09-01-2024,16:00,5.25020,P,ugm-3,27.23018,P,ugm-3,35.28037,P,ugm-3,45.85121,P,ugm-3,4.000,P,ugm-3 (BAM)
09-01-2024,17:00,4.51024,P,ugm-3,29.87755,P,ugm-3,36.79315,P,ugm-3,47.14841,P,ugm-3,3.000,P,ugm-3 (BAM)
09-01-2024,18:00,4.22835,P,ugm-3,29.55338,P,ugm-3,36.03676,P,ugm-3,48.34583,P,ugm-3,4.000,P,ugm-3 (BAM)
09-01-2024,19:00,3.98169,P,ugm-3,26.20364,P,ugm-3,32.30882,P,ugm-3,51.28949,P,ugm-3,3.000,P,ugm-3 (BAM)
09-01-2024,20:00,3.55886,P,ugm-3,25.50128,P,ugm-3,30.95812,P,ugm-3,52.28734,P,ugm-3,3.000,P,ugm-3 (BAM)
09-01-2024,21:00,3.13602,P,ugm-3,24.90697,P,ugm-3,29.71547,P,ugm-3,53.23530,P,ugm-3,7.000,P,ugm-3 (BAM)
09-01-2024,22:00,3.03032,P,ugm-3,23.44821,P,ugm-3,28.09463,P,ugm-3,55.13121,P,ugm-3,5.000,P,ugm-3 (BAM)
09-01-2024,23:00,2.67795,P,ugm-3,21.01694,P,ugm-3,25.12308,P,ugm-3,54.48261,P,ugm-3,6.000,P,ugm-3 (BAM)
09-01-2024,24:00,2.32559,P,ugm-3,18.36956,P,ugm-3,21.93542,P,ugm-3,54.98154,P,ugm-3,5.000,P,ugm-3 (BAM)
10-01-2024,01:00,2.02021,P,ugm-3,15.99233,P,ugm-3,19.08994,P,ugm-3,55.21437,P,ugm-3,3.000,P,ugm-3 (BAM)
10-01-2024,02:00,2.11417,P,ugm-3,15.48806,P,ugm-3,18.72975,P,ugm-3,53.88390,P,ugm-3,3.000,P,ugm-3 (BAM)
10-01-2024,03:00,1.97323,P,ugm-3,13.88523,P,ugm-3,16.91080,P,ugm-3,52.53680,P,ugm-3,5.000,P,ugm-3 (BAM)
10-01-2024,04:00,2.04370,P,ugm-3,13.23689,P,ugm-3,16.37052,P,ugm-3,51.04003,P,ugm-3,4.000,P,ugm-3 (BAM)
10-01-2024,05:00,1.90276,P,ugm-3,15.23593,P,ugm-3,18.15345,P,ugm-3,50.59100,P,ugm-3,4.000,P,ugm-3 (BAM)
10-01-2024,06:00,2.25512,P,ugm-3,15.88427,P,ugm-3,19.34207,P,ugm-3,53.73422,P,ugm-3,2.000,P,ugm-3 (BAM)
10-01-2024,07:00,2.85413,P,ugm-3,20.47666,P,ugm-3,24.85294,P,ugm-3,48.04648,P,ugm-3,2.000,P,ugm-3 (BAM)
10-01-2024,08:00,3.84075,P,ugm-3,29.66144,P,ugm-3,35.55051,P,ugm-3,43.45637,P,ugm-3,3.000,P,ugm-3 (BAM)
10-01-2024,09:00,4.12264,P,ugm-3,29.82353,P,ugm-3,36.14482,P,ugm-3,48.39573,P,ugm-3,4.000,P,ugm-3 (BAM)
10-01-2024,10:00,5.49685,P,ugm-3,28.95908,P,ugm-3,37.38746,P,ugm-3,50.89035,P,ugm-3,3.000,P,ugm-3 (BAM)
10-01-2024,11:00,6.16634,P,ugm-3,23.77238,P,ugm-3,33.22730,P,ugm-3,55.48046,P,ugm-3,0.000,P,ugm-3 (BAM)
10-01-2024,12:00,6.87106,P,ugm-3,22.90793,P,ugm-3,33.44341,P,ugm-3,54.68218,P,ugm-3,3.000,P,ugm-3 (BAM)